Notices

What's New in latest Release from April 7th, 2021:

- Updated Glossary, including Speed of Maximum Gust, and Total Hourly Precipitation

- Updated national and regional climate services offices contacts and prices information

- Addition of station inventory lists for 1981-2010, 1971-2000, and 1961-1990 Normals.

If you haven't already, please take our survey and provide feedback about our website: https://eccc.sondage-survey.ca/f/LanguageSelection.aspx?s=442ca660-fcf1-47c0-95a9-59707d6fd709

Hourly Data Report for January 21, 2004

SHERBROOKE A
QUEBEC

45°26'00.000" N
71°41'00.000" W
241.40 m
7028124
71610
YSC

Download Data

Hourly Data (January 2004)
Hourly Data Report for January 21, 2004
TIME
LST
Temp Definition
°C
Dew Point Definition
°C
Rel Hum Definition
%
Precip. Amount Definition
mm

Wind Dir Definition
10's deg

Wind Spd Definition
km/h
Visibility Definition
km
Stn Press Definition
kPa
Hmdx Definition


Wind Chill Definition


Weather Definition


00:00 -13.4 -16.7 76   27 15 9.7 98.41   -21  
01:00 -13.4 -16.7 76   27 15 8.0 98.46   -21  
02:00 -13.7 -17.1 75   26 13 4.8 98.53   -21  
03:00 -14.5 -17.8 76   25 11 5.6 98.58   -21  
04:00 -15.1 -18.3 76   24 11 15.0 98.62   -22  
05:00 -16.0 -19.1 77   23 7 15.0 98.67   -21  
06:00 -17.4 -20.2 79   21 7 15.0 98.71   -23  
07:00 -17.0 -20.0 77   21 7 15.0 98.77   -22  
08:00 -16.0 -19.0 78   21 7 24.1 98.82   -21 Mostly Cloudy
09:00 -14.7 -18.1 75   22 9 24.1 98.85   -20 Mostly Cloudy
10:00 -13.9 -17.5 74   24 11 19.3 98.85   -20 Cloudy
11:00 -13.2 -17.1 72   24 13 19.3 98.80   -20 Snow
12:00 -12.8 -17.1 70   27 17 19.3 98.76   -21 Snow
13:00 -12.2 -17.2 66   27 11 24.1 98.66   -18 Mostly Cloudy
14:00 -12.6 -17.7 66   28 9 24.1 98.63   -18 Mainly Clear
15:00 -12.6 -17.9 65   28 11 24.1 98.62   -19 Mainly Clear
16:00 -12.3 -18.0 62   31 9 24.1 98.59   -18 Clear
17:00 -15.2 -18.4 76   28 4 24.1 98.59   -18 Clear
18:00 -20.3 -22.8 80   25 4 15.0 98.58   -24  
19:00 -20.3 -22.7 81   11 4 15.0 98.55   -24  
20:00 -21.0 -24.8 71   10 6 15.0 98.51   -26  
21:00 -21.2 -25.5 68   12 4 15.0 98.46   -25  
22:00 -21.0 -25.2 69   9 7 15.0 98.36   -27  
23:00 -20.1 -24.3 69   9 9 15.0 98.32   -27  

Notes on Data Quality.

Legend

  • E = Estimated
  • M = Missing
  • NA = Not Available*
  • [empty] = Indicates an unobserved value
Date modified: